Home   Weather   Salt Lake City   Past weeks
Flag for USA

Past Weather in Salt Lake City, Utah, USA — Yesterday and Last 2 Weeks

Now
54 °F

Broken clouds.


Feels Like: 54 °F
Forecast: 56 / 43 °F
Wind: 3 mph from Southwest

Location: Salt Lake City International Airport

Current Time: May 22, 2019 at 5:51:12 pm

Latest Report: May 22, 2019 at 4:54 pm


Visibility: 10 mi

Pressure: 29.65 "Hg (25.34 "Hg at 1312m altitude)

Humidity: 55%

Dew Point: 38 °F

Location of Salt Lake CityLocation

Past Weather in Salt Lake City — Graph

°F

Salt Lake City Temperature Yesterday

Maximum temperature yesterday: 55 °F (at 10:54 am)
Minimum temperature yesterday: 44 °F (at 3:28 pm)
Average temperature yesterday: 48 °F

High & Low Weather Summary for the Past Weeks

 TemperatureHumidityPressure
High84 °F (May 13, 5:54 pm)93% (May 17, 9:54 pm)30.41 "Hg (May 17, 9:54 pm)
Low43 °F (May 18, 3:54 am)13% (May 12, 3:54 pm)29.42 "Hg (May 16, 2:54 pm)
Average58 °F52%29.75 "Hg
* Reported May 7 3:54 pm — May 22 3:54 pm, Salt Lake City. Weather by CustomWeather, © 2019

Note: Actual official high and low records may vary slightly from our data, if they occured in-between our weather recording intervals... More about our weather records

Advertising

Salt Lake City Weather History for the Previous 24 Hours

Scroll right to see more
 ConditionsComfort  
Time TempWeatherWind HumidityBarometerVisibility
3:54 pm
Wed, May 22
52 °FMostly cloudy.No wind72%29.67 "Hg10 mi
2:54 pm49 °FRain. Mostly cloudy.7 mph80%29.68 "Hg6 mi
2:05 pm49 °FRain. More clouds than sun.9 mph80%29.72 "Hg6 mi
1:01 pm53 °FBroken clouds.7 mph64%29.70 "Hg10 mi
12:00 pm51 °FBroken clouds.No wind69%29.69 "Hg10 mi
11:16 am49 °FLight rain. Mostly cloudy.No wind77%29.69 "Hg10 mi
10:54 am48 °FBroken clouds.No wind74%29.63 "Hg10 mi
10:21 am46 °FLight rain. Mostly cloudy.No wind79%29.68 "Hg10 mi
9:54 am46 °FLight rain. Mostly cloudy.No wind83%29.63 "Hg10 mi
8:54 am45 °FLight rain. Mostly cloudy.No wind80%29.63 "Hg10 mi
7:54 am44 °FLight rain. Mostly cloudy.5 mph89%29.62 "Hg10 mi
7:04 am43 °FLight rain. More clouds than sun.7 mph89%29.65 "Hg10 mi
6:54 am43 °FLight rain. Mostly cloudy.8 mph89%29.61 "Hg10 mi
6:34 am44 °FLight rain. More clouds than sun.9 mph89%29.64 "Hg10 mi
6:06 am44 °FLight rain. Mostly cloudy.8 mph89%29.63 "Hg10 mi
5:54 am45 °FLight rain. Mostly cloudy.6 mph90%29.59 "Hg10 mi
5:35 am45 °FLight rain. Mostly cloudy.3 mph90%29.63 "Hg10 mi
4:54 am45 °FLight rain. Mostly cloudy.6 mph90%29.58 "Hg10 mi
3:54 am45 °FLight rain. Mostly cloudy.8 mph90%29.57 "Hg9 mi
3:12 am45 °FLight rain. Mostly cloudy.5 mph90%29.61 "Hg10 mi
2:54 am45 °FLight rain. Mostly cloudy.5 mph90%29.57 "Hg10 mi
1:54 am46 °FPassing clouds.3 mph83%29.56 "Hg10 mi
12:54 am46 °FPassing clouds.6 mph83%29.57 "Hg10 mi
11:54 pm
Tue, May 21
46 °FPartly cloudy.6 mph83%29.56 "Hg10 mi
10:54 pm45 °FPassing clouds.3 mph90%29.56 "Hg10 mi
9:54 pm45 °FPartly cloudy.5 mph86%29.55 "Hg10 mi
8:54 pm45 °FPartly cloudy.6 mph86%29.55 "Hg10 mi
7:54 pm45 °FBroken clouds.7 mph86%29.55 "Hg10 mi
6:56 pm44 °FMostly cloudy.9 mph93%29.61 "Hg10 mi
5:54 pm45 °FLight rain. Overcast.9 mph86%29.57 "Hg8 mi
Weather by CustomWeather, © 2019

See weather overview